Zurück zum Katalog

PVCC

AktivMilitärSSO
NORAD 58025·PAYLOAD·🇧🇪 Belgium

Gestartet Oct 9, 2023 von Guiana Space Centre

Loading…

Nächste Überflüge (nächste 24 Stunden)

TLE

AktuellSource: Space-Track

Epoche: Sep 14, 2026, 11:32 UTC

1 58025U 23155K   26257.48115594  .00004779  00000-0  24630-3 0  9990
2 58025  97.5638 333.8038 0004440 163.7213 196.4163 15.16849685161510

Verfolge PVCC in Echtzeit mit AllMySat

Download on the App Store